Time,TemperatureF,DewpointF,PressureIn,WindDirection,WindDirectionDegrees,WindSpeedMPH,WindSpeedGustMPH,Humidity,HourlyPrecipIn,Conditions,Clouds,dailyrainin,SoftwareType,DateUTC
2013-07-07 00:00:00,81.0,-99.9,29.88,South,180,9.0,10.0,-999,-99.99,,,-99.99,,2013-07-07 05:00:00,
2013-07-07 00:21:00,81.0,-99.9,29.88,South,180,9.0,10.0,-999,-99.99,,,-99.99,,2013-07-07 05:21:00,
2013-07-07 00:32:00,81.0,-99.9,29.88,South,180,9.0,10.0,-999,-99.99,,,-99.99,,2013-07-07 05:32:00,
2013-07-07 00:41:00,81.0,-99.9,29.88,South,180,9.0,10.0,-999,-99.99,,,-99.99,,2013-07-07 05:41:00,
2013-07-07 00:51:00,81.0,-99.9,29.88,South,180,9.0,10.0,-999,-99.99,,,-99.99,,2013-07-07 05:51:00,
2013-07-07 01:00:00,81.0,-99.9,29.88,South,170,9.0,10.0,-999,-99.99,,,-99.99,,2013-07-07 06:00:00,
2013-07-07 01:22:00,81.0,-99.9,29.88,South,170,9.0,10.0,-999,-99.99,,,-99.99,,2013-07-07 06:22:00,
2013-07-07 01:32:00,81.0,-99.9,29.88,South,170,9.0,10.0,-999,-99.99,,,-99.99,,2013-07-07 06:32:00,
2013-07-07 01:43:00,81.0,-99.9,29.88,South,170,9.0,10.0,-999,-99.99,,,-99.99,,2013-07-07 06:43:00,
2013-07-07 01:52:00,81.0,-99.9,29.88,South,170,9.0,10.0,-999,-99.99,,,-99.99,,2013-07-07 06:52:00,
2013-07-07 02:00:00,81.0,-99.9,29.88,SSE,160,10.0,12.0,-999,-99.99,,,-99.99,,2013-07-07 07:00:00,
2013-07-07 02:23:00,81.0,-99.9,29.88,SSE,160,10.0,12.0,-999,-99.99,,,-99.99,,2013-07-07 07:23:00,
2013-07-07 02:34:00,81.0,-99.9,29.88,SSE,160,10.0,12.0,-999,-99.99,,,-99.99,,2013-07-07 07:34:00,
2013-07-07 02:44:00,81.0,-99.9,29.88,SSE,160,10.0,12.0,-999,-99.99,,,-99.99,,2013-07-07 07:44:00,
2013-07-07 02:53:00,81.0,-99.9,29.88,SSE,160,10.0,12.0,-999,-99.99,,,-99.99,,2013-07-07 07:53:00,
2013-07-07 03:00:00,81.0,-99.9,29.88,SSE,150,14.0,15.0,-999,-99.99,,,-99.99,,2013-07-07 08:00:00,
2013-07-07 03:22:00,81.0,-99.9,29.88,SSE,150,14.0,15.0,-999,-99.99,,,-99.99,,2013-07-07 08:22:00,
2013-07-07 03:34:00,81.0,-99.9,29.88,SSE,150,14.0,15.0,-999,-99.99,,,-99.99,,2013-07-07 08:34:00,
2013-07-07 03:44:00,81.0,-99.9,29.88,SSE,150,14.0,15.0,-999,-99.99,,,-99.99,,2013-07-07 08:44:00,
2013-07-07 03:53:00,81.0,-99.9,29.88,SSE,150,14.0,15.0,-999,-99.99,,,-99.99,,2013-07-07 08:53:00,
2013-07-07 04:00:00,81.0,-99.9,29.88,SSE,150,15.0,16.0,-999,-99.99,,,-99.99,,2013-07-07 09:00:00,
2013-07-07 04:22:00,81.0,-99.9,29.88,SSE,150,15.0,16.0,-999,-99.99,,,-99.99,,2013-07-07 09:22:00,
2013-07-07 04:34:00,81.0,-99.9,29.88,SSE,150,15.0,16.0,-999,-99.99,,,-99.99,,2013-07-07 09:34:00,
2013-07-07 04:43:00,81.0,-99.9,29.88,SSE,150,15.0,16.0,-999,-99.99,,,-99.99,,2013-07-07 09:43:00,
2013-07-07 04:53:00,81.0,-99.9,29.88,SSE,150,15.0,16.0,-999,-99.99,,,-99.99,,2013-07-07 09:53:00,
2013-07-07 05:00:00,81.0,-99.9,29.88,SSE,150,13.0,14.0,-999,-99.99,,,-99.99,,2013-07-07 10:00:00,
2013-07-07 05:32:00,81.0,-99.9,29.88,SSE,150,13.0,14.0,-999,-99.99,,,-99.99,,2013-07-07 10:32:00,
2013-07-07 05:44:00,81.0,-99.9,29.88,SSE,150,13.0,14.0,-999,-99.99,,,-99.99,,2013-07-07 10:44:00,
2013-07-07 05:52:00,81.0,-99.9,29.88,SSE,150,13.0,14.0,-999,-99.99,,,-99.99,,2013-07-07 10:52:00,
2013-07-07 06:00:00,81.0,-99.9,29.89,SSE,150,9.0,10.0,-999,-99.99,,,-99.99,,2013-07-07 11:00:00,
2013-07-07 06:34:00,81.0,-99.9,29.89,SSE,150,9.0,10.0,-999,-99.99,,,-99.99,,2013-07-07 11:34:00,
2013-07-07 06:43:00,81.0,-99.9,29.89,SSE,150,9.0,10.0,-999,-99.99,,,-99.99,,2013-07-07 11:43:00,
2013-07-07 06:53:00,81.0,-99.9,29.89,SSE,150,9.0,10.0,-999,-99.99,,,-99.99,,2013-07-07 11:53:00,
2013-07-07 07:00:00,81.0,-99.9,29.91,South,170,9.0,10.0,-999,-99.99,,,-99.99,,2013-07-07 12:00:00,
2013-07-07 07:34:00,81.0,-99.9,29.91,South,170,9.0,10.0,-999,-99.99,,,-99.99,,2013-07-07 12:34:00,
2013-07-07 07:43:00,81.0,-99.9,29.91,South,170,9.0,10.0,-999,-99.99,,,-99.99,,2013-07-07 12:43:00,
2013-07-07 07:52:00,81.0,-99.9,29.91,South,170,9.0,10.0,-999,-99.99,,,-99.99,,2013-07-07 12:52:00,
2013-07-07 09:00:00,83.0,-99.9,29.93,SE,140,6.0,7.0,-999,-99.99,,,-99.99,,2013-07-07 14:00:00,
2013-07-07 09:34:00,83.0,-99.9,29.93,SE,140,6.0,7.0,-999,-99.99,,,-99.99,,2013-07-07 14:34:00,
2013-07-07 09:43:00,83.0,-99.9,29.93,SE,140,6.0,7.0,-999,-99.99,,,-99.99,,2013-07-07 14:43:00,
2013-07-07 09:53:00,83.0,-99.9,29.93,SE,140,6.0,7.0,-999,-99.99,,,-99.99,,2013-07-07 14:53:00,
2013-07-07 10:00:00,82.0,-99.9,29.96,East,90,7.0,8.0,-999,-99.99,,,-99.99,,2013-07-07 15:00:00,
2013-07-07 10:22:00,82.0,-99.9,29.96,East,90,7.0,8.0,-999,-99.99,,,-99.99,,2013-07-07 15:22:00,
2013-07-07 10:34:00,82.0,-99.9,29.96,East,90,7.0,8.0,-999,-99.99,,,-99.99,,2013-07-07 15:34:00,
2013-07-07 10:43:00,82.0,-99.9,29.96,East,90,7.0,8.0,-999,-99.99,,,-99.99,,2013-07-07 15:43:00,
2013-07-07 10:52:00,82.0,-99.9,29.96,East,90,7.0,8.0,-999,-99.99,,,-99.99,,2013-07-07 15:52:00,
2013-07-07 11:00:00,82.0,-99.9,29.96,ESE,110,6.0,6.0,-999,-99.99,,,-99.99,,2013-07-07 16:00:00,
2013-07-07 11:34:00,82.0,-99.9,29.96,ESE,110,6.0,6.0,-999,-99.99,,,-99.99,,2013-07-07 16:34:00,
2013-07-07 11:43:00,82.0,-99.9,29.96,ESE,110,6.0,6.0,-999,-99.99,,,-99.99,,2013-07-07 16:43:00,
2013-07-07 11:53:00,82.0,-99.9,29.96,ESE,110,6.0,6.0,-999,-99.99,,,-99.99,,2013-07-07 16:53:00,
2013-07-07 12:00:00,82.0,-99.9,29.96,ESE,120,8.0,9.0,-999,-99.99,,,-99.99,,2013-07-07 17:00:00,
2013-07-07 12:34:00,82.0,-99.9,29.96,ESE,120,8.0,9.0,-999,-99.99,,,-99.99,,2013-07-07 17:34:00,
2013-07-07 12:43:00,82.0,-99.9,29.96,ESE,120,8.0,9.0,-999,-99.99,,,-99.99,,2013-07-07 17:43:00,
2013-07-07 12:53:00,82.0,-99.9,29.96,ESE,120,8.0,9.0,-999,-99.99,,,-99.99,,2013-07-07 17:53:00,
2013-07-07 14:00:00,82.0,-99.9,29.96,SE,140,14.0,16.0,-999,-99.99,,,-99.99,,2013-07-07 19:00:00,
2013-07-07 14:43:00,82.0,-99.9,29.96,SE,140,14.0,16.0,-999,-99.99,,,-99.99,,2013-07-07 19:43:00,
2013-07-07 14:54:00,82.0,-99.9,29.96,SE,140,14.0,16.0,-999,-99.99,,,-99.99,,2013-07-07 19:54:00,
2013-07-07 15:00:00,81.0,-99.9,29.95,SE,140,17.0,20.0,-999,-99.99,,,-99.99,,2013-07-07 20:00:00,
2013-07-07 15:34:00,81.0,-99.9,29.95,SE,140,17.0,20.0,-999,-99.99,,,-99.99,,2013-07-07 20:34:00,
2013-07-07 15:42:00,81.0,-99.9,29.95,SE,140,17.0,20.0,-999,-99.99,,,-99.99,,2013-07-07 20:42:00,
2013-07-07 15:53:00,81.0,-99.9,29.95,SE,140,17.0,20.0,-999,-99.99,,,-99.99,,2013-07-07 20:53:00,
2013-07-07 16:00:00,82.0,-99.9,29.93,SE,130,14.0,15.0,-999,-99.99,,,-99.99,,2013-07-07 21:00:00,
2013-07-07 16:34:00,82.0,-99.9,29.93,SE,130,14.0,15.0,-999,-99.99,,,-99.99,,2013-07-07 21:34:00,
2013-07-07 16:44:00,82.0,-99.9,29.93,SE,130,14.0,15.0,-999,-99.99,,,-99.99,,2013-07-07 21:44:00,
2013-07-07 16:53:00,82.0,-99.9,29.93,SE,130,14.0,15.0,-999,-99.99,,,-99.99,,2013-07-07 21:53:00,
2013-07-07 17:00:00,81.0,-99.9,29.92,SE,130,25.0,27.0,-999,-99.99,,,-99.99,,2013-07-07 22:00:00,
2013-07-07 17:44:00,81.0,-99.9,29.92,SE,130,25.0,27.0,-999,-99.99,,,-99.99,,2013-07-07 22:44:00,
2013-07-07 17:54:00,81.0,-99.9,29.92,SE,130,25.0,27.0,-999,-99.99,,,-99.99,,2013-07-07 22:54:00,
2013-07-07 18:00:00,80.0,-99.9,29.92,SSE,160,20.0,23.0,-999,-99.99,,,-99.99,,2013-07-07 23:00:00,
2013-07-07 18:33:00,80.0,-99.9,29.92,SSE,160,20.0,23.0,-999,-99.99,,,-99.99,,2013-07-07 23:33:00,
2013-07-07 18:43:00,80.0,-99.9,29.92,SSE,160,20.0,23.0,-999,-99.99,,,-99.99,,2013-07-07 23:43:00,
2013-07-07 18:53:00,80.0,-99.9,29.92,SSE,160,20.0,23.0,-999,-99.99,,,-99.99,,2013-07-07 23:53:00,
2013-07-07 19:00:00,81.0,-99.9,29.92,SSE,150,16.0,18.0,-999,-99.99,,,-99.99,,2013-07-08 00:00:00,
2013-07-07 19:33:00,81.0,-99.9,29.92,SSE,150,16.0,18.0,-999,-99.99,,,-99.99,,2013-07-08 00:33:00,
2013-07-07 19:43:00,81.0,-99.9,29.92,SSE,150,16.0,18.0,-999,-99.99,,,-99.99,,2013-07-08 00:43:00,
2013-07-07 19:53:00,81.0,-99.9,29.92,SSE,150,16.0,18.0,-999,-99.99,,,-99.99,,2013-07-08 00:53:00,
2013-07-07 20:00:00,80.0,-99.9,29.92,SE,140,17.0,18.0,-999,-99.99,,,-99.99,,2013-07-08 01:00:00,
2013-07-07 20:43:00,80.0,-99.9,29.92,SE,140,17.0,18.0,-999,-99.99,,,-99.99,,2013-07-08 01:43:00,
2013-07-07 20:53:00,80.0,-99.9,29.92,SE,140,17.0,18.0,-999,-99.99,,,-99.99,,2013-07-08 01:53:00,
2013-07-07 21:00:00,80.0,-99.9,29.94,SE,140,17.0,18.0,-999,-99.99,,,-99.99,,2013-07-08 02:00:00,
2013-07-07 21:34:00,80.0,-99.9,29.94,SE,140,17.0,18.0,-999,-99.99,,,-99.99,,2013-07-08 02:34:00,
2013-07-07 21:43:00,80.0,-99.9,29.94,SE,140,17.0,18.0,-999,-99.99,,,-99.99,,2013-07-08 02:43:00,
2013-07-07 21:52:00,80.0,-99.9,29.94,SE,140,17.0,18.0,-999,-99.99,,,-99.99,,2013-07-08 02:52:00,
2013-07-07 22:00:00,80.0,-99.9,29.96,SE,130,15.0,16.0,-999,-99.99,,,-99.99,,2013-07-08 03:00:00,
2013-07-07 22:34:00,80.0,-99.9,29.96,SE,130,15.0,16.0,-999,-99.99,,,-99.99,,2013-07-08 03:34:00,
2013-07-07 22:43:00,80.0,-99.9,29.96,SE,130,15.0,16.0,-999,-99.99,,,-99.99,,2013-07-08 03:43:00,
2013-07-07 22:52:00,80.0,-99.9,29.96,SE,130,15.0,16.0,-999,-99.99,,,-99.99,,2013-07-08 03:52:00,
2013-07-07 23:00:00,80.0,-99.9,29.98,SE,130,22.0,24.0,-999,-99.99,,,-99.99,,2013-07-08 04:00:00,
2013-07-07 23:22:00,80.0,-99.9,29.98,SE,130,22.0,24.0,-999,-99.99,,,-99.99,,2013-07-08 04:22:00,
2013-07-07 23:33:00,80.0,-99.9,29.98,SE,130,22.0,24.0,-999,-99.99,,,-99.99,,2013-07-08 04:33:00,
2013-07-07 23:43:00,80.0,-99.9,29.98,SE,130,22.0,24.0,-999,-99.99,,,-99.99,,2013-07-08 04:43:00,
2013-07-07 23:53:00,80.0,-99.9,29.98,SE,130,22.0,24.0,-999,-99.99,,,-99.99,,2013-07-08 04:53:00,